Location: Black Swamp Observatory
(41.3920°N, 84.1250°W)
Time: 20:19:04
(UTC-04:00)

Amateur Radio Satellites - All Passes

Search period start: 22 September 2014 19:49
Search period end: 23 September 2014 19:49
Location: Black Swamp Observatory, 41.3920°N, 84.1250°W

Satellite Date Start Highest point End Downlink Frequencies (MHz)
Time Altitude Azimuth
STRAND 1 22 Sep 20:18:06 20:23:12 60° 101° (ESE) 20:28:16 ?
HO-68 22 Sep 20:18:22 20:23:50 25° 58° (ENE) 20:29:19 435.675 MHz FM
Sapphire 22 Sep 20:37:59 20:42:39 28° 49° (NE) 20:47:18 437.095 MHz 1200 baud AX-25 AFSK
UKube-1 22 Sep 21:02:23 21:04:30 14° 62° (ENE) 21:06:37 145.840 MHz, 145.915 MHz
PCSat 22 Sep 21:04:21 21:09:36 47° 55° (NE) 21:14:48 145.825 MHz
KITSAT 1 22 Sep 21:23:27 21:30:47 37° 315° (NW) 21:38:10 435.175 FM
SO-50 22 Sep 21:41:08 21:44:45 25° 112° (ESE) 21:48:27 436.795 FM
STRAND 1 22 Sep 21:58:32 22:01:54 18° 298° (WNW) 22:05:16 ?
HO-68 22 Sep 22:03:49 22:10:55 69° 256° (WSW) 22:18:04 435.675 MHz FM
FUNcube-1 22 Sep 22:15:37 22:19:10 24° 67° (ENE) 22:22:48 145.950 - 145.970 MHz USB
Oscar 11 22 Sep 22:15:42 22:19:58 56° 74° (ENE) 22:24:16 145.825 FM, Beacon 2401.500 USB
Sapphire 22 Sep 22:21:06 22:26:16 45° 248° (WSW) 22:31:23 437.095 MHz 1200 baud AX-25 AFSK
UKube-1 22 Sep 22:35:56 22:40:12 60° 259° (WSW) 22:44:30 145.840 MHz, 145.915 MHz
PCSat 22 Sep 22:48:21 22:52:42 25° 252° (WSW) 22:57:02 145.825 MHz
ZACube-1 22 Sep 22:57:43 23:02:06 66° 75° (ENE) 23:06:38 437.345 MHz
UOSAT-12 22 Sep 23:01:29 23:03:50 14° 108° (ESE) 23:06:12 437.025 FM, 437.400 FM
SO-50 22 Sep 23:20:55 23:25:06 38° 310° (NW) 23:29:25 436.795 FM
KITSAT 1 22 Sep 23:25:21 23:29:02 13° 342° (NNW) 23:32:44 435.175 FM
FUNcube-1 22 Sep 23:51:22 23:55:22 33° 264° (W) 23:59:29 145.950 - 145.970 MHz USB
Oscar 11 22 Sep 23:54:29 23:56:30 13° 270° (W) 23:58:31 145.825 FM, Beacon 2401.500 USB
HO-68 22 Sep 23:58:55 23:59:49 10° 274° (W) 00:00:44 435.675 MHz FM
Oscar 10/S400 23 Sep 00:23:18 01:12:39 51° 207° (SSW) 08:36:34 145.825 - 145.975 CW/USB, Beacon 145.810 USB
ZACube-1 23 Sep 00:37:25 00:38:59 12° 271° (W) 00:40:34 437.345 MHz
UOSAT-12 23 Sep 00:38:46 00:43:23 68° 305° (NW) 00:48:05 437.025 FM, 437.400 FM
KITSAT 1 23 Sep 01:25:46 01:28:52 12° 14° (NNE) 01:31:58 435.175 FM
AO-40 23 Sep 01:31:26 02:38:18 15° 234° (SW) 04:19:13 Beacon 2401.320
Saudisat 1A 23 Sep 01:31:33 01:35:46 42° 51° (NE) 01:39:57 436.775 MHz
Oscar 16 23 Sep 02:13:02 02:16:54 21° 93° (E) 02:20:43 437.025 USB, Beacon 2401.1428
UOSAT-12 23 Sep 02:22:23 02:24:26 13° 325° (NW) 02:26:30 437.025 FM, 437.400 FM
ISS 23 Sep 02:23:25 02:26:43 71° 142° (SE) 02:30:03 145.800 FM
PANSAT 23 Sep 02:42:02 02:43:29 12° 181° (S) 02:44:57 not established
JAS-1B 23 Sep 02:50:00 02:54:31 24° 94° (E) 02:59:07 435.800 - 435.900 CW/SSB
ITAMSAT 1 23 Sep 03:03:39 03:07:58 26° 95° (E) 03:12:16 435.822 SSB
Uribyol 2 23 Sep 03:06:45 03:11:18 29° 96° (E) 03:15:48 436.500 FM
Saudisat 1A 23 Sep 03:11:44 03:15:04 21° 248° (WSW) 03:18:23 436.775 MHz
Oscar 19 23 Sep 03:11:51 03:17:01 74° 103° (ESE) 03:22:09 437.125 CW, 437.150 USB
Gurwin Techsat 1B 23 Sep 03:14:17 03:17:28 16° 91° (E) 03:20:38 435.225 FM
KITSAT 1 23 Sep 03:20:22 03:27:25 31° 42° (NE) 03:34:25 435.175 FM
AO-Echo 23 Sep 03:34:38 03:39:29 61° 101° (E) 03:44:28 ?
RS-15 23 Sep 03:37:34 03:47:15 37° 107° (ESE) 03:56:46 29.354 - 29.394 USB, Beacon 29.352 USB
AO-27 23 Sep 03:39:05 03:44:14 56° 101° (E) 03:49:21 436.795 MHz FM
TMSAT-1 23 Sep 03:48:03 03:52:20 24° 94° (E) 03:56:35 436.925 FM
Oscar 16 23 Sep 03:51:31 03:56:28 47° 289° (WNW) 04:01:23 437.025 USB, Beacon 2401.1428
ISS 23 Sep 04:01:00 04:03:42 23° 340° (NNW) 04:06:25 145.800 FM
JAS-1B 23 Sep 04:40:08 04:45:28 42° 292° (WNW) 04:50:51 435.800 - 435.900 CW/SSB
ITAMSAT 1 23 Sep 04:42:43 04:47:33 39° 291° (WNW) 04:52:22 435.822 SSB
Uribyol 2 23 Sep 04:46:04 04:50:46 35° 292° (WNW) 04:55:27 436.500 FM
Uosat F 23 Sep 04:49:44 04:52:29 15° 91° (E) 04:55:14 435.120 FM
Gurwin Techsat 1B 23 Sep 04:52:36 04:57:52 64° 287° (WNW) 05:03:06 435.225 FM
Oscar 19 23 Sep 04:52:54 04:55:44 15° 300° (WNW) 04:58:32 437.125 CW, 437.150 USB
OPAL 23 Sep 05:08:09 05:13:14 59° 70° (ENE) 05:18:23 ?
AO-Echo 23 Sep 05:14:48 05:17:48 16° 297° (WNW) 05:20:50 ?
KITSAT 1 23 Sep 05:15:27 05:23:29 71° 244° (WSW) 05:31:28 435.175 FM
AO-7 23 Sep 05:17:06 05:24:42 38° 98° (E) 05:32:14 29.400 - 29.500 MHz
AO-27 23 Sep 05:19:40 05:23:18 19° 298° (WNW) 05:26:55 436.795 MHz FM
TMSAT-1 23 Sep 05:27:25 05:32:23 42° 290° (WNW) 05:37:21 436.925 FM
ISS 23 Sep 05:39:27 05:41:20 14° 0° (N) 05:43:12 145.800 FM
RS-15 23 Sep 05:48:01 05:58:56 64° 309° (NW) 06:09:49 29.354 - 29.394 USB, Beacon 29.352 USB
STRAND 1 23 Sep 05:59:14 06:00:50 11° 58° (ENE) 06:02:26 ?
SO-50 23 Sep 06:11:53 06:16:01 28° 46° (NE) 06:20:11 436.795 FM
Uosat F 23 Sep 06:26:43 06:31:42 64° 287° (WNW) 06:36:40 435.120 FM
JAS-2 23 Sep 06:29:14 06:34:33 28° 95° (E) 06:40:22 435.800 - 435.900 CW/SSB, 435.910 FM
Hamsat 23 Sep 06:41:29 06:44:45 21° 94° (E) 06:47:57 145.90 MHz
OPAL 23 Sep 06:49:07 06:52:29 17° 266° (W) 06:55:53 ?
AO-7 23 Sep 07:09:45 07:17:35 49° 297° (WNW) 07:25:26 29.400 - 29.500 MHz
KITSAT 1 23 Sep 07:14:27 07:17:24 12° 262° (W) 07:20:22 435.175 FM
ISS 23 Sep 07:16:09 07:18:56 24° 21° (NNE) 07:21:41 145.800 FM
MaSat-1 23 Sep 07:19:59 07:23:14 18° 103° (ESE) 07:26:27 437.345 MHz
UOSAT-12 23 Sep 07:29:18 07:32:25 17° 40° (NE) 07:35:30 437.025 FM, 437.400 FM
STRAND 1 23 Sep 07:34:08 07:39:13 86° 75° (ENE) 07:44:21 ?
SO-50 23 Sep 07:52:10 07:56:43 42° 244° (WSW) 08:01:16 436.795 FM
RS-15 23 Sep 08:05:27 08:14:00 25° 338° (NNW) 08:22:38 29.354 - 29.394 USB, Beacon 29.352 USB
JAS-2 23 Sep 08:13:47 08:19:44 51° 289° (WNW) 08:26:26 435.800 - 435.900 CW/SSB, 435.910 FM
Hamsat 23 Sep 08:16:59 08:20:45 32° 290° (WNW) 08:24:28 145.90 MHz
SO-67 23 Sep 08:40:43 08:44:10 70° 101° (E) 08:47:36 435.3500 MHz FM
ISS 23 Sep 08:52:34 08:55:52 64° 219° (SW) 08:59:09 145.800 FM
MaSat-1 23 Sep 08:54:35 08:59:30 59° 298° (WNW) 09:04:18 437.345 MHz
AO-7 23 Sep 09:06:14 09:08:23 11° 318° (NW) 09:10:32 29.400 - 29.500 MHz
UOSAT-12 23 Sep 09:08:24 09:13:09 79° 239° (WSW) 09:17:47 437.025 FM, 437.400 FM
STRAND 1 23 Sep 09:18:09 09:19:03 10° 272° (W) 09:19:58 ?
HO-68 23 Sep 09:32:22 09:37:50 23° 93° (E) 09:43:17 435.675 MHz FM
RS-15 23 Sep 10:23:33 10:31:41 23° 15° (NNE) 10:39:56 29.354 - 29.394 USB, Beacon 29.352 USB
UKube-1 23 Sep 10:24:39 10:28:05 22° 95° (E) 10:31:30 145.840 MHz, 145.915 MHz
ZACube-1 23 Sep 10:48:39 10:51:02 14° 90° (E) 10:53:23 437.345 MHz
HO-68 23 Sep 11:18:56 11:26:03 67° 290° (WNW) 11:33:09 435.675 MHz FM
Sapphire 23 Sep 11:20:47 11:24:55 23° 107° (ESE) 11:29:05 437.095 MHz 1200 baud AX-25 AFSK
Oscar 11 23 Sep 11:39:16 11:43:37 71° 285° (WNW) 11:47:54 145.825 FM, Beacon 2401.500 USB
FUNcube-1 23 Sep 11:40:00 11:44:29 48° 99° (E) 11:48:52 145.950 - 145.970 MHz USB
PCSat 23 Sep 11:46:14 11:51:16 41° 112° (ESE) 11:56:21 145.825 MHz
UKube-1 23 Sep 12:00:25 12:04:19 33° 291° (WNW) 12:08:13 145.840 MHz, 145.915 MHz
ZACube-1 23 Sep 12:23:15 12:27:49 58° 286° (WNW) 12:32:16 437.345 MHz
RS-15 23 Sep 12:36:48 12:47:32 51° 46° (NE) 12:58:37 29.354 - 29.394 USB, Beacon 29.352 USB
Oscar 19 23 Sep 12:52:34 12:55:15 14° 60° (ENE) 12:57:56 437.125 CW, 437.150 USB
Sapphire 23 Sep 13:02:43 13:07:58 51° 304° (NW) 13:13:16 437.095 MHz 1200 baud AX-25 AFSK
HO-68 23 Sep 13:09:13 13:12:27 14° 310° (NW) 13:15:41 435.675 MHz FM
FUNcube-1 23 Sep 13:17:23 13:20:28 18° 296° (WNW) 13:23:31 145.950 - 145.970 MHz USB
AO-27 23 Sep 13:22:06 13:23:49 12° 58° (ENE) 13:25:32 436.795 MHz FM
Oscar 16 23 Sep 13:29:52 13:34:24 32° 67° (ENE) 13:38:57 437.025 USB, Beacon 2401.1428
PCSat 23 Sep 13:30:03 13:34:48 30° 310° (NW) 13:39:34 145.825 MHz
JAS-1B 23 Sep 13:34:27 13:41:05 29° 64° (ENE) 13:46:50 435.800 - 435.900 CW/SSB
ITAMSAT 1 23 Sep 14:21:39 14:26:26 39° 69° (ENE) 14:31:14 435.822 SSB
Uribyol 2 23 Sep 14:24:37 14:29:31 45° 70° (ENE) 14:34:26 436.500 FM
Oscar 19 23 Sep 14:28:43 14:33:55 78° 257° (WSW) 14:39:09 437.125 CW, 437.150 USB
AO-7 23 Sep 14:30:07 14:33:00 12° 43° (NE) 14:35:54 29.400 - 29.500 MHz
Gurwin Techsat 1B 23 Sep 14:35:07 14:39:27 26° 65° (ENE) 14:43:48 435.225 FM
AO-Echo 23 Sep 14:47:56 14:52:39 79° 75° (ENE) 14:57:21 ?
RS-15 23 Sep 14:49:23 14:59:57 52° 248° (WSW) 15:10:58 29.354 - 29.394 USB, Beacon 29.352 USB
Sapphire 23 Sep 14:51:38 14:52:44 11° 326° (NW) 14:53:49 437.095 MHz 1200 baud AX-25 AFSK
AO-27 23 Sep 14:57:20 15:02:30 86° 75° (ENE) 15:07:43 436.795 MHz FM
TMSAT-1 23 Sep 15:08:45 15:13:36 38° 69° (ENE) 15:18:28 436.925 FM
Oscar 16 23 Sep 15:09:04 15:13:41 32° 264° (W) 15:18:20 437.025 USB, Beacon 2401.1428
JAS-1B 23 Sep 15:23:09 15:31:24 58° 258° (WSW) 15:38:20 435.800 - 435.900 CW/SSB
ITAMSAT 1 23 Sep 16:01:49 16:06:01 25° 265° (W) 16:10:16 435.822 SSB
Uosat F 23 Sep 16:02:51 16:06:36 22° 64° (ENE) 16:10:22 435.120 FM
Uribyol 2 23 Sep 16:05:12 16:09:10 22° 266° (W) 16:13:11 436.500 FM
Gurwin Techsat 1B 23 Sep 16:14:14 16:19:12 40° 262° (W) 16:24:12 435.225 FM
AO-7 23 Sep 16:15:58 16:23:55 53° 64° (ENE) 16:31:52 29.400 - 29.500 MHz
AO-27 23 Sep 16:41:22 16:42:40 11° 272° (W) 16:43:58 436.795 MHz FM
TMSAT-1 23 Sep 16:49:10 16:53:35 27° 265° (W) 16:58:02 436.925 FM
MaSat-1 23 Sep 17:11:27 17:14:36 25° 54° (NE) 17:17:23 437.345 MHz
Saudisat 1A 23 Sep 17:17:00 17:21:24 84° 303° (WNW) 17:25:50 436.775 MHz
OPAL 23 Sep 17:19:45 17:22:35 15° 92° (E) 17:25:23 ?
Hamsat 23 Sep 17:35:28 17:38:18 17° 65° (ENE) 17:41:08 145.90 MHz
Uosat F 23 Sep 17:40:18 17:45:04 45° 261° (W) 17:49:53 435.120 FM
KITSAT 1 23 Sep 17:52:20 17:56:51 16° 100° (E) 18:01:22 435.175 FM
AO-7 23 Sep 18:09:30 18:16:54 35° 263° (W) 18:24:21 29.400 - 29.500 MHz
JAS-2 23 Sep 18:26:54 18:32:04 71° 74° (ENE) 18:37:16 435.800 - 435.900 CW/SSB, 435.910 FM
MaSat-1 23 Sep 18:48:33 18:51:01 18° 257° (WSW) 18:53:15 437.345 MHz
OPAL 23 Sep 18:56:49 19:01:56 66° 289° (WNW) 19:06:57 ?
Saudisat 1A 23 Sep 18:59:29 19:01:40 13° 322° (NW) 19:03:51 436.775 MHz
Hamsat 23 Sep 19:09:44 19:13:54 45° 261° (W) 19:18:05 145.90 MHz
SO-67 23 Sep 19:14:08 19:16:53 23° 70° (ENE) 19:19:38 435.3500 MHz FM
